Погода в Чинджу

Южная Корея     35°11′20″N   128°04′38″E
темп.,
°C
ветер,
м/с
пор.,
м/с
влажн.,
%
обл.,
%
осадки,
мм/ч
давл.,
гПа
погр.,
м
14 апреля, ср
ср1400:00+4ссз2469100 0.0 1017198
03:00+3ссз2571100 0.0 1017176
06:00+3ссз2369100 0.0 101782
09:00+9ссз3632100 0.0 1019738
12:00+15с48180 0.0 10182210
15:00+15ссз47210 0.0 10172180
18:00+13ссз37330 0.0 1018490
21:00+6зсз22480 0.0 102121
15 апреля, чт
чт1500:00+5ссз2251100 0.0 102027
03:00+4ссз22545 0.0 102020
06:00+3с22579 0.0 102119
09:00+11св123778 0.0 1020379
12:00+16ююв1227100 0.0 10191180
15:00+14ю4433100 0.0 1018761
18:00+12ю35480 0.0 1018352
21:00+7юз11680 0.0 101922
16 апреля, пт
пт1600:00+6з116939 0.0 101815
03:00+5зюз1176100 0.0 101713
06:00+6юз117799 0.0 101520
09:00+13ююз4959100 0.0 1015839
12:00+13юз3764100 0.0 1015666
15:00+17з35505 0.0 10131307
18:00+15зюз134929 0.0 1014199
21:00+9сз2255100 0.0 101641
17 апреля, сб
сб1700:00+8зсз1150100 0.0 101720
03:00+6сз21470 0.0 101719
06:00+4юз124976 0.0 101525
09:00+14з25360 0.0 10161001
12:00+17зсз51025100 0.0 10163390
15:00+16зсз711205 0.0 10153660
18:00+13зсз59300 0.0 10161456
21:00+7зсз22470 0.0 1019151
18 апреля, вс
вс1800:00+5з22540 0.0 1019134
03:00+4з22580 0.0 101924
06:00+3з11630 0.0 101921
09:00+12сз410310 0.0 10201410
12:00+16сз59230 0.0 10192079
15:00+18сз58230 0.0 10162217
18:00+15сз36350 0.0 1016401
21:00+8сз22505 0.0 101929